星链-4101 (STARLINK-4101 )

导读

STARLINK-4101是美国SpaceX公司星链(Starlink)星座中的一颗卫星,于2022年7月17日发射升空。星链项目旨在构建全球卫星互联网星座,为全球提供高速宽带网络服务,尤其服务偏远地区与移动场景下互联网接入。作为低轨通信卫星,它运行于近地轨道,助力星链网络扩展覆盖范围,提升全球互联能力,代表了美国商业航天低轨星座部署的持续推进,也推动了卫星互联网技术发展与全球太空资源利用的探索。

Basic Information
目录编号:
53142
目录名称:
STARLINK-4101
国际标识:
2022-083L
轨道中心:
EARTH
卫星名称:
星链-4101
卫星全名:
星链-4101 (STARLINK-4101 )
卫星状态:
在轨 (已飞行1510 天)
发射日期:
2022-07-17 UTC
国别 :
美国 (US)
星等 :
--
Orbit Information
数据来源 国际轨道数据
星历时间: 2026-09-02T06:58:40+0800
2天前
查看轨道信息
半长轴: 6843.399km
偏心率: 0.0001175
轨道倾角: 53.159°
近地点辐角 89.754°
升交点赤经 90.737°
平近点角 270.360°
近地点: 464.457km
远地点: 466.067km
周期: 93.900分钟
每日圈数: 15.335397
Detailed Information
固有亮度:
5
最大亮度:
2.5
卫星平台:
Starlink v1.5
覆盖范围:
全球
运营商:
太空探索技术公司
运营商所在国:
美国
制造商(研发单位):
太空探索技术公司
制造商所在国:
美国
使用方式:
暂无
Satellite Introduction
星链(Starlink)计划是由太空探索技术公司(SpaceX)提出的一个巨型低轨卫星互联网星座项目,计划在2019年至2024年间在太空搭建由约1.2万颗卫星组成的“星链”网络,其中1584颗将部署在地球上空550千米处的近地轨道,并从2020年开始工作。该卫星仍在工作。
2D Orbit Map
3D Orbit Map
Orbit Altitude Analysis Chart
Orbit Inclination Analysis Chart
Orbit Comprehensive Analysis Chart
View Comprehensive Chart
Conjunction Data List
Event ID Objects TCA Miss Dist (km) Collision Risk Probability Collision Risk Index (CRI) Action
CDM_260903-020505-314205-922522
2026-09-03T
02:05:58+0000
0.161 km
中距离
9.304378E-4 高风险 0.94
CDM_260829-115605-314206-955923
2026-08-29T
11:56:18+0000
2.107 km
极远距离
2.494763E-6 低风险 0.43
CDM_260904-213005-314206-955421
2026-09-04T
21:30:51+0000
2.333 km
极远距离
1.988332E-6 低风险 0.41
CDM_260829-120205-314206-567423
2026-08-29T
12:02:13+0000
2.397 km
极远距离
1.895827E-6 低风险 0.41
CDM_260904-125205-314206-929622
2026-09-04T
12:52:27+0000
2.451 km
极远距离
1.811201E-6 低风险 0.4
CDM_260904-014905-314206-922221
2026-09-04T
01:49:59+0000
2.512 km
极远距离
1.738285E-6 低风险 0.4
CDM_260903-071205-314206-524824
2026-09-03T
07:12:33+0000
2.512 km
极远距离
1.722001E-6 低风险 0.4
CDM_260905-072105-314206-121521
2026-09-05T
07:21:52+0000
2.441 km
极远距离
1.543699E-6 低风险 0.39
CDM_260903-194305-314206-878621
2026-09-03T
19:43:00+0000
2.713 km
极远距离
1.518293E-6 低风险 0.39
CDM_260904-014005-314206-576021
2026-09-04T
01:40:45+0000
2.541 km
极远距离
1.472982E-6 低风险 0.38